FLOCK 3P-77 (42025 NORAD) Tracking and Keplerian Element Data

This shows tracking and keplerian element data for the satellite.

Feedback or suggestion? Click here.




ElementValue
Catalog42025
NameFLOCK 3P-77
Epoch Orbit23371
Epoch Day119.88679191
Epoch Year2021
RAAN189.1212
Inclination97.3275
Eccentricity0.0005983
Argument of Perigee254.9216
Mean Anonmoly105.1362
Mean Motion15.27810168
Decay Rate4.205E-05
L11 42025U 17008CF 21119.88679191 .00004205 00000-0 15751-3 0 9995
L22 42025 97.3275 189.1212 0005983 254.9216 105.1362 15.27810168233719



Live tracking and technical data element details for FLOCK 3P-77 (NORAD 42025). FLOCK 3P-77 can be tracked NOW for your location showing map with azimuth and elevation plus other details from your city location.







IsCatalogInMostPopularTable: catalog: 42025, numindb: 596
Update: records affected: 1



GetName: 42025 FLOCK 3P-77

Hit Count: updated at: Tue, 03 Dec 2024 02:47:47 GMT